Regional Weather Roundup
Issued by NWS Goodland, KS

Home | Current Version | Previous Version | Text Only | Print | Product List | Glossary On
Versions: 1 2 3 4 5 6 7 8 9 10 11 12 13 14 15 16 17 18 19 20 21 22 23 24 25 26 27 28 29 30 31 32 33 34 35 36 37 38 39 40 41 42 43 44 45 46 47 48 49 50
000
ASUS43 KGLD 010408
RWRGLD

GOODLAND FORECAST AREA HOURLY WEATHER ROUNDUP
NATIONAL WEATHER SERVICE GOODLAND KS
1000 PM MDT THU JUL 31 2014

...OFFICIAL OBSERVATIONS...

CITY           SKY/WX    TMP DP  RH WIND       PRES   REMARKS
GOODLAND KS    CLEAR     68  51  54 SW9       30.17R
HILL CITY KS   CLOUDY    78  53  41 N7        30.08R
IMPERIAL NEB   CLEAR     67  59  75 E3        30.15R
MCCOOK NEB     CLEAR     71  57  61 NE5       30.10R
AKRON CO       PTCLDY    68  51  54 SW5       30.22R
BURLINGTON CO  PTCLDY    63  53  70 SW7       30.21R
LIMON CO       PTCLDY    60  52  74 CALM      30.29R
$$

...UNOFFICIAL OBSERVATIONS...

CITY           SKY/WX    TMP DP  RH WIND       PRES   REMARKS
COLBY KS       MOCLDY    73  54  49 W6        30.15R
GOVE KS          N/A     66  32  28 MISG        N/A
LENORA KS        N/A     79  32  18 MISG        N/A
NORTON KS      CLEAR     73  52  46 NE5       30.07R
OBERLIN KS     FAIR      68  54  60 N9        30.09R
ST FRANCIS KS  PTCLDY    66  54  63 SW7       30.15R
TRIBUNE KS     CLEAR     64   5   9 SW7       30.21R
TRENTON NEB      N/A     68  32  26 CALM        N/A
KIT CARSON CO    N/A     64  55  73 CALM        N/A
WRAY CO          N/A     72  57  60 CALM      30.16R
YUMA CO          N/A     66  55  67 S5          N/A
$$



USA.gov is the U.S. government's official web portal to all federal, state and local government web resources and services.